[[{"header":{"parameterUnit":"m.s-1","parameterCategory":1,"la1":30.2991,"la2":30.254,"lo1":-89.0895,"lo2":-89.0444,"dy":0.0017,"dx":0.0017,"nx":28,"ny":28,"refTime":"2023-08-26T21:00:00:Z","depth":0,"parameterNumber":2,"parameterNumberName":"U-component_of_WINDS"},"data":[0,0,0,0,0,0,0,0,0,0,0,0,0,0,0,0,0,0,0,0,0,0,0,0,0,0,0,0,0,0,0,0,0,0,0,0,0,0,0,0,0,0,0,0,0,0,0,0,0,0,0,0,0,0,0,0,0,0,0.0107,0.0108,0,0.0165,0.0166,0.0167,0.0231,0.0232,0.0233,0.0233,0.0293,0.0294,0.0295,0,0,0,0,0,0,0,0,0,0,0,0,0,0.0051,0.0052,0.0107,0.0108,0.0108,0.0165,0.0166,0.0167,0.0231,0.0232,0.0233,0.0234,0.0293,0.0294,0.0295,0,0,0,0,0,0,0,0,0,0,0,0,0,0.0089,0.0052,0.0107,0.0147,0.0151,0.0165,0.0166,0.0167,0.023,0.0232,0.0233,0.0234,0.0293,0.0294,0.0295,0.0274,0,0,0.0298,0.0299,0,0,0,0,0,0,0,0,0.0087,0.0091,0.014,0.0144,0.0149,0.0192,0.0168,0.0203,0.023,0.02,0.0234,0.0235,0.0258,0.0262,0.027,0.0276,0.0279,0.0298,0.0299,0.0299,0.03,0,0,0,0,0,0,0,0.0084,0.0089,0.013,0.0141,0.0146,0.0162,0.0169,0.0175,0.0221,0.0203,0.0208,0.0214,0.0261,0.0269,0.0272,0.028,0.0298,0.0299,0.03,0.03,0.0272,0.0271,0,0,0,0,0,0,0.0075,0.0086,0.0128,0.0132,0.0121,0.0162,0.017,0.0177,0.0221,0.0229,0.0213,0.0217,0.0267,0.0271,0.0275,0.0253,0.0299,0.03,0.0301,0.0274,0.0272,0.027,0,0,0,0,0,0,0.0074,0.0078,0.0126,0.011,0.0118,0.0162,0.0169,0.0177,0.0185,0.0228,0.0237,0.0212,0.0268,0.0273,0.0274,0.0256,0.0301,0.0302,0.0275,0.0273,0.0271,0.021,0,0,0,0,0,0,0.0072,0.0078,0.007,0.011,0.0118,0.0123,0.0168,0.0177,0.0187,0.0193,0.023,0.0238,0.0269,0.0272,0.0275,0.0258,0.0303,0.0277,0.0274,0.0272,0.0213,0.0206,0.0199,0,0,0,0,0,0.007,0.005,0.0069,0.0074,0.0109,0.0122,0.0127,0.0164,0.0185,0.0178,0.0206,0.0237,0.0257,0.0271,0.0275,0.0259,0.0278,0.0275,0.0272,0.0217,0.0207,0.0199,0,0,0,0,0,0,0.0007,0.0056,0.0078,0.007,0.0091,0.0133,0.0125,0.0153,0.0168,0.0173,0.0218,0.0226,0.0221,0.024,0.0255,0.0241,0.0272,0.027,0.0229,0.022,0.0213,0.0209,0.0304,0,0,0,0,0,-0.0008,-0.0002,0.0041,0.003,0.004,0.008,0.0087,0.0114,0.0138,0.0147,0.0175,0.0197,0.0209,0.0216,0.0229,0.0216,0.0226,0.0207,0.02,0.0194,0.0191,0.0187,0.0179,0.026,0.026,0.026,0,0,-0.0039,-0.0011,-0.001,0.0018,0.0038,0.0044,0.0088,0.0092,0.0096,0.0148,0.015,0.0171,0.0199,0.0193,0.0192,0.0209,0.0171,0.019,0.0185,0.0186,0.0183,0.0175,0.0168,0.0258,0.0258,0.0259,0,0,-0.0091,-0.007,-0.0076,-0.0057,-0.0028,-0.0,-0.0002,0.0035,0.0051,0.0054,0.0093,0.01,0.0119,0.0137,0.0149,0.0104,0.0133,0.0107,0.0069,0.0064,0.0058,0.0053,0.0037,0.0031,0.0104,0.0104,0.0104,0,-0.0133,-0.0123,-0.0083,-0.0081,-0.007,-0.0023,-0.0028,-0.0012,0.002,0.0027,0.0045,0.007,0.0092,0.0092,0.0081,0.0089,0.0088,0.0103,0.0056,0.0051,0.0046,0.0032,0.0026,0.01,0.0101,0.0101,0.0101,0,-0.0175,-0.0169,-0.0177,-0.0147,-0.0137,-0.0139,-0.0099,-0.0094,-0.0068,-0.0043,-0.004,-0.0012,0.0008,0.001,0.0035,0.0013,0.0022,0.0047,0.008,0.0034,0.0022,0.0016,0.0096,0.0097,0.0098,0.0099,0,0,-0.0266,-0.0214,-0.0217,-0.0203,-0.0167,-0.0161,-0.0161,-0.0141,-0.0137,-0.0116,-0.0115,-0.01,-0.0076,-0.0063,-0.0035,-0.004,-0.0077,-0.0013,-0.0012,-0.0026,-0.0099,-0.0118,-0.0125,-0.0057,-0.0058,-0.0059,-0.0101,0,-0.0312,-0.0308,-0.0272,-0.0279,-0.0272,-0.0227,-0.0227,-0.0205,-0.0181,-0.0172,-0.0146,-0.0136,-0.0105,-0.0097,-0.0099,-0.0072,-0.009,-0.0068,-0.0055,-0.0055,-0.0063,-0.0131,-0.0152,-0.0193,-0.0106,-0.0106,-0.0107,0,-0.0365,-0.0347,-0.0353,-0.0316,-0.0312,-0.0313,-0.0292,-0.0283,-0.0257,-0.0239,-0.0225,-0.0193,-0.019,-0.016,-0.0155,-0.0141,-0.0133,-0.0119,-0.0119,-0.0117,-0.0084,-0.013,-0.0205,-0.0211,-0.0115,-0.0114,-0.0113,0,-0.043,-0.0408,-0.0408,-0.0397,-0.0355,-0.0356,-0.0338,-0.031,-0.0301,-0.0282,-0.0276,-0.0257,-0.0247,-0.0234,-0.0198,-0.018,-0.0197,-0.0164,-0.0182,-0.0183,-0.0188,-0.0188,-0.0263,-0.0184,-0.0184,-0.0184,-0.0184,0,-0.0485,-0.0491,-0.0437,-0.0437,-0.0442,-0.04,-0.0406,-0.0384,-0.036,-0.0355,-0.0315,-0.0311,-0.0265,-0.0256,-0.0228,-0.0228,-0.0224,-0.0209,-0.0202,-0.0213,-0.0215,-0.0207,-0.0204,-0.0185,-0.0185,-0.0185,-0.0184,0,-0.0559,-0.0523,-0.0521,-0.048,-0.047,-0.0475,-0.044,-0.0439,-0.0413,-0.0407,-0.0403,-0.0362,-0.035,-0.0313,-0.0291,-0.0272,-0.028,-0.0266,-0.0289,-0.0284,-0.0305,-0.0303,-0.0377,-0.0384,-0.0301,-0.0302,-0.0303,0,-0.0596,-0.0599,-0.0559,-0.0552,-0.0536,-0.0527,-0.0517,-0.0476,-0.0467,-0.0437,-0.0439,-0.0423,-0.0408,-0.039,-0.0358,-0.0341,-0.0326,-0.0353,-0.0324,-0.0334,-0.0327,-0.0327,-0.0327,-0.036,-0.0361,-0.0362,-0.0363,0,-0.0666,-0.0648,-0.0635,-0.0615,-0.0604,-0.0587,-0.0568,-0.0565,-0.0519,-0.0511,-0.0498,-0.0486,-0.0464,-0.0448,-0.0426,-0.0407,-0.0378,-0.0372,-0.0375,-0.0387,-0.04,-0.0393,-0.0307,-0.0371,-0.037,-0.0369,-0.0369,-0.0369,-0.0722,-0.0723,-0.0694,-0.0681,-0.0662,-0.0644,-0.0641,-0.0614,-0.0602,-0.058,-0.0557,-0.0546,-0.0519,-0.0486,-0.047,-0.046,-0.0444,-0.0449,-0.0451,-0.0452,-0.0457,-0.0401,-0.0456,-0.0456,-0.0456,-0.0455,-0.0455,0,-0.079,-0.0769,-0.0757,-0.0731,-0.072,-0.0693,-0.067,-0.0663,-0.0654,-0.0631,-0.0617,-0.0601,-0.0586,-0.0553,-0.0535,-0.0534,-0.052,-0.053,-0.053,-0.0526,-0.0473,-0.0472,-0.0542,-0.0542,-0.0542,-0.0542,-0.0542,-0.0542,-0.0824,-0.0823,-0.0801,-0.0791,-0.077,-0.0758,-0.0748,-0.0731,-0.0713,-0.0697,-0.0684,-0.0663,-0.0636,-0.0615,-0.06,-0.0591,-0.0586,-0.0601,-0.0587,-0.0538,-0.053,-0.0522,-0.0521,-0.06,-0.06,-0.0641,-0.0642,-0.0642]},{"header":{"parameterUnit":"m.s-1","parameterCategory":1,"la1":30.2991,"la2":30.254,"lo1":-89.0895,"lo2":-89.0444,"dy":0.0017,"dx":0.0017,"nx":28,"ny":28,"refTime":"2023-08-26T21:00:00:Z","depth":0,"parameterNumber":3,"parameterNumberName":"V-component_of_WINDS"},"data":[0,0,0,0,0,0,0,0,0,0,0,0,0,0,0,0,0,0,0,0,0,0,0,0,0,0,0,0,0,0,0,0,0,0,0,0,0,0,0,0,0,0,0,0,0,0,0,0,0,0,0,0,0,0,0,0,0,0,3.0142,3.0142,0,3.016,3.016,3.0161,3.0172,3.0172,3.0172,3.0172,3.0188,3.0188,3.0188,0,0,0,0,0,0,0,0,0,0,0,0,0,3.011,3.011,3.0142,3.0142,3.0142,3.016,3.016,3.0161,3.0172,3.0172,3.0172,3.0172,3.0187,3.0188,3.0188,0,0,0,0,0,0,0,0,0,0,0,0,0,3.0125,3.011,3.0142,3.015,3.0151,3.016,3.016,3.0161,3.0172,3.0172,3.0172,3.0172,3.0187,3.0188,3.0188,3.019,0,0,3.019,3.019,0,0,0,0,0,0,0,0,3.0124,3.0126,3.0148,3.0149,3.015,3.0164,3.0155,3.017,3.0172,3.0164,3.0172,3.0172,3.0179,3.0181,3.0184,3.0191,3.0192,3.019,3.019,3.0191,3.0191,0,0,0,0,0,0,0,3.0123,3.0126,3.0149,3.0149,3.015,3.0151,3.0153,3.0158,3.0171,3.0164,3.0165,3.0167,3.018,3.0183,3.0184,3.0192,3.019,3.0191,3.0191,3.0191,3.0197,3.0197,0,0,0,0,0,0,3.0122,3.0125,3.0148,3.0149,3.0137,3.0151,3.0154,3.0159,3.0171,3.0173,3.0167,3.0168,3.0182,3.0184,3.0185,3.0185,3.0191,3.0191,3.0192,3.0197,3.0197,3.0197,0,0,0,0,0,0,3.0121,3.0124,3.0148,3.0137,3.014,3.0152,3.0158,3.016,3.0163,3.0173,3.0175,3.0169,3.0182,3.0184,3.0188,3.0186,3.0191,3.0192,3.0197,3.0197,3.0197,3.0188,0,0,0,0,0,0,3.012,3.0123,3.0126,3.0137,3.0141,3.0152,3.0158,3.016,3.0164,3.0165,3.0175,3.0176,3.0183,3.0187,3.0189,3.0187,3.0192,3.0198,3.0197,3.0197,3.0188,3.0187,3.0186,0,0,0,0,0,3.0119,3.0122,3.0126,3.0129,3.0144,3.0152,3.0154,3.0162,3.0164,3.0166,3.0171,3.0176,3.0186,3.0188,3.0189,3.0188,3.0198,3.0197,3.0197,3.0189,3.0188,3.0186,0,0,0,0,0,0,3.011,3.0124,3.0128,3.0136,3.0143,3.0154,3.0156,3.0161,3.0167,3.0167,3.0175,3.0177,3.018,3.0184,3.0186,3.0188,3.0192,3.0192,3.0185,3.0184,3.0183,3.0182,3.0193,0,0,0,0,0,3.0109,3.0116,3.0127,3.0133,3.0136,3.0145,3.0149,3.0154,3.0161,3.0164,3.017,3.0176,3.0179,3.0182,3.0187,3.0189,3.0189,3.0188,3.0187,3.0186,3.0186,3.0184,3.0183,3.0196,3.0196,3.0196,0,0,3.0107,3.0116,3.012,3.0131,3.0137,3.0142,3.0148,3.0153,3.0156,3.0165,3.0169,3.0173,3.0179,3.0181,3.0183,3.0185,3.0182,3.0186,3.0185,3.0185,3.0184,3.0183,3.0182,3.0195,3.0195,3.0195,0,0,3.0106,3.0114,3.0119,3.0124,3.0132,3.0138,3.0139,3.0149,3.0152,3.0156,3.0162,3.0164,3.0172,3.0175,3.0178,3.0173,3.0177,3.0175,3.0169,3.0168,3.0167,3.0166,3.0162,3.0161,3.0174,3.0174,3.0174,0,3.0102,3.0111,3.012,3.0124,3.0128,3.0136,3.0138,3.0143,3.0152,3.0153,3.0156,3.0163,3.0168,3.017,3.0169,3.0171,3.0171,3.0174,3.0166,3.0166,3.0165,3.0162,3.0161,3.0174,3.0174,3.0174,3.0174,0,3.0105,3.0111,3.0113,3.0121,3.0125,3.0129,3.0136,3.0138,3.0142,3.0146,3.0149,3.0154,3.0159,3.0159,3.0164,3.0161,3.0162,3.0165,3.0169,3.0163,3.016,3.0159,3.0173,3.0173,3.0173,3.0173,0,0,3.0101,3.0112,3.0113,3.0116,3.0124,3.0128,3.013,3.0134,3.0135,3.014,3.0141,3.0145,3.0148,3.0151,3.0155,3.0153,3.0147,3.0157,3.0157,3.0153,3.0141,3.0138,3.0136,3.0149,3.0149,3.0149,3.014,0,3.01,3.0106,3.0112,3.0115,3.0119,3.0124,3.0126,3.013,3.0133,3.0135,3.0138,3.014,3.0145,3.0146,3.0145,3.0148,3.0144,3.0149,3.0148,3.0147,3.0145,3.0135,3.0132,3.0124,3.0139,3.0139,3.0139,0,3.0101,3.0105,3.0108,3.0114,3.0115,3.0117,3.012,3.0122,3.0125,3.0127,3.0129,3.0133,3.0133,3.0137,3.0135,3.0138,3.0137,3.0138,3.0138,3.0138,3.0142,3.0133,3.0122,3.012,3.0137,3.0137,3.0137,0,3.0095,3.0102,3.0104,3.0106,3.0113,3.0113,3.0116,3.0119,3.012,3.0122,3.0123,3.0124,3.0125,3.0125,3.0128,3.0131,3.0125,3.013,3.0125,3.0125,3.0124,3.0124,3.0111,3.0125,3.0125,3.0125,3.0125,0,3.0093,3.0095,3.0101,3.0103,3.0103,3.0109,3.0108,3.0111,3.0113,3.0113,3.0118,3.0117,3.0122,3.0121,3.0123,3.012,3.0121,3.0121,3.0122,3.012,3.012,3.012,3.012,3.0125,3.0125,3.0125,3.0125,0,3.0088,3.0093,3.0095,3.01,3.0101,3.0101,3.0105,3.0104,3.0107,3.0107,3.0107,3.011,3.011,3.0112,3.0112,3.0113,3.0109,3.011,3.0108,3.0108,3.0103,3.0102,3.0089,3.0086,3.0103,3.0102,3.0102,0,3.0086,3.0087,3.0092,3.0092,3.0094,3.0096,3.0096,3.01,3.0101,3.0103,3.0102,3.0101,3.0101,3.0099,3.01,3.0099,3.01,3.0095,3.01,3.0098,3.0098,3.0098,3.0097,3.0094,3.0094,3.0094,3.0094,0,3.0082,3.0083,3.0085,3.0087,3.0087,3.0089,3.009,3.009,3.0094,3.0094,3.0093,3.0093,3.0091,3.009,3.0088,3.0089,3.0091,3.0092,3.0091,3.0089,3.0087,3.0086,3.0104,3.0092,3.0093,3.0093,3.0093,3.0093,3.0077,3.0077,3.008,3.008,3.0082,3.0082,3.0081,3.0083,3.0083,3.0083,3.0084,3.0082,3.0082,3.008,3.008,3.0077,3.0079,3.0078,3.0077,3.0076,3.0075,3.0088,3.0077,3.0077,3.0077,3.0077,3.0077,0,3.0072,3.0073,3.0074,3.0075,3.0074,3.0077,3.0078,3.0077,3.0075,3.0075,3.0074,3.0071,3.0069,3.0069,3.0067,3.0064,3.0065,3.0063,3.0063,3.0062,3.0074,3.0075,3.0062,3.0062,3.0062,3.0062,3.0062,3.0062,3.0069,3.0068,3.0069,3.0068,3.0069,3.0067,3.0067,3.0066,3.0066,3.0063,3.0061,3.0061,3.006,3.0057,3.0054,3.0054,3.0052,3.005,3.005,3.0061,3.0062,3.0063,3.0064,3.0049,3.0049,3.0038,3.0038,3.0038]}]]